sat.trackr.live / text

‹ back to catalog

STARLINK-35494

NORAD 65927 · 2025-225T

PAYLOAD ACTIVE UNKNOWN

§ Identity

Operator
Country
US
Launch date
2025-10-08
Launch site
AFWTR
Launch vehicle
Mass (kg)
RCS (m²)

Purposes: comms

External: N2YO · Heavens-Above · Gunter

§ Orbital elements

Epoch: 2026-09-20T12:07:46.470144Z

Period
93.85 min
Inclination
53.1593°
Eccentricity
0.0001165
Mean motion
15.34408343 rev/d
Perigee alt
461.9 km
Apogee alt
463.5 km
Semi-major
6,840.8 km
B*
4.7581e-4
RAAN
337.3514°
Arg perigee
96.2027°
Mean anomaly
263.9108°
Rev number
5,428

§ Raw data

STARLINK-354941 65927U 25225T   26263.50539896  .00015738  00000+0  47581-3 0  99902 65927  53.1593 337.3514 0001165  96.2027 263.9108 15.34408343 54285

JSON: /api/v1/satellites/65927 · /tle

For live sub-satellite position, see the globe view (requires WebGL).

§ Visibility from observer

Set your observer location to see the next 7 days of passes ≥ 10°. The values pass through the URL so the page stays shareable.

No JS? Fill the form by hand. The geolocation button needs JavaScript.